User: anonymous   Login
Location: Albany
(35.0000°S, 118.0000°E)
Time: 00:42:31
(UTC-05:00)
Language:

Cosmos 1933 - Orbit

View from above orbital plane
View from above orbital plane
View from above satellite
View from above satellite

Ground track
Ground track

The orbit data is extracted from the following two-line orbital elements,

1 18958U 88020A   16042.02292736  .00001492  00000-0  10955-3 0  9992
2 18958  82.5279 218.5751 0012412 150.1291 210.0646 15.02720774517607
Epoch (UTC): 11 February 2016 00:33:00
Eccentricity: 0.0012412
inclination: 82.5279°
perigee height: 550 km
apogee height: 567 km
right ascension of ascending node: 218.5751°
argument of perigee: 150.1291°
revolutions per day: 15.02720774
mean anomaly at epoch: 210.0646°
orbit number at epoch: 51760

The dashed part of the orbit path shows where the satellite is in the earth's shadow,  

DLR